Location: Unspecified
(0.0000°N, 0.0000°E)
Time: 07:12:08
(UTC+01:00)

GP-B - Visible Passes

Search period start: 23 March 2017 00:00
Search period end: 02 April 2017 01:00
Orbit: 631 x 636 km, 89.8° (Epoch: 21 March)

Date Brightness Start Highest point End Pass type
(mag) Time Alt. Az. Time Alt. Az. Time Alt. Az.
28 Mar 5.1 21:51:33 18° N 21:51:33 18° N 21:52:44 10° N visible
29 Mar 4.7 22:11:19 31° WNW 22:11:19 31° WNW 22:14:11 10° NNW visible
30 Mar 4.4 20:51:39 10° SE 20:54:51 20° E 20:58:02 10° NE visible
30 Mar 5.8 22:29:06 10° SW 22:31:52 16° W 22:34:39 10° NW visible
31 Mar 3.3 21:12:24 10° SSE 21:16:39 45° E 21:20:51 10° NNE visible
01 Apr 3.2 21:34:00 10° S 21:38:26 74° W 21:42:50 10° N visible
